CW4279 Weather Reports


Display with metric or nautical units.
time (UTC)temp
F
wind
direction
speed
MPH
gust
MPH
rain 1hr
in
rain 24hr
in
rain mn
in
humidity
%
barometer
mb
20260505204346 48 40 3.0 8.0 0.00 0.00 0.00 44 1007.9
20260505203843 48 179 2.0 6.0 0.00 0.00 0.00 43 1008.0
20260505203339 49 107 2.0 6.0 0.00 0.00 0.00 42 1008.1
20260505202836 50 103 1.0 6.0 0.00 0.00 0.00 42 1008.1
20260505202331 50 356 6.0 8.0 0.00 0.00 0.00 41 1008.2
20260505201828 49 174 2.0 3.0 0.00 0.00 0.00 42 1008.3
20260505201326 51 290 3.0 6.0 0.00 0.00 0.00 41 1008.2
20260505200824 51 53 1.0 3.0 0.00 0.00 0.00 41 1008.2
20260505200320 50 162 2.0 7.0 0.00 0.00 0.00 40 1008.0
20260505195816 49 102 1.0 3.0 0.00 0.00 0.00 43 1008.2
20260505195314 49 171 2.0 6.0 0.00 0.00 0.00 42 1008.3
20260505194811 48 99 2.0 5.0 0.00 0.00 0.00 43 1008.2
20260505194308 48 141 1.0 3.0 0.00 0.00 0.00 42 1008.2
20260505193803 48 51 5.0 7.0 0.00 0.00 0.00 42 1008.1
20260505193301 48 15 4.0 7.0 0.00 0.00 0.00 41 1008.3
20260505192759 48 268 5.0 9.0 0.00 0.00 0.00 41 1008.2
20260505192256 48 164 2.0 3.0 0.00 0.00 0.00 42 1008.1
20260505191754 48 303 2.0 3.0 0.00 0.00 0.00 41 1008.3
20260505191252 48 322 3.0 5.0 0.00 0.00 0.00 41 1008.4
20260505190748 49 145 4.0 7.0 0.00 0.00 0.00 40 1008.0
20260505190243 48 291 4.0 7.0 0.00 0.00 0.00 41 1008.1
20260505185740 49 78 1.0 5.0 0.00 0.00 0.00 41 1008.1
20260505185237 48 145 0.0 6.0 0.00 0.00 0.00 42 1008.3
20260505184733 48 206 3.0 9.0 0.00 0.00 0.00 42 1008.4
20260505184230 47 56 2.0 2.0 0.00 0.00 0.00 43 1008.3
20260505183727 47 278 1.0 6.0 0.00 0.00 0.00 43 1008.5
20260505183224 47 3 6.0 8.0 0.00 0.00 0.00 43 1008.3
20260505182721 47 68 1.0 2.0 0.00 0.00 0.00 44 1008.2
20260505182218 47 74 3.0 7.0 0.00 0.00 0.00 44 1008.3
20260505181714 47 182 2.0 5.0 0.00 0.00 0.00 45 1008.1
20260505181212 46 247 2.0 8.0 0.00 0.00 0.00 44 1008.2
20260505180708 47 271 3.0 6.0 0.00 0.00 0.00 43 1008.0
20260505180205 46 166 3.0 7.0 0.00 0.00 0.00 44 1008.4
20260505175701 46 280 3.0 5.0 0.00 0.00 0.00 45 1008.3
20260505175157 47 58 4.0 9.0 0.00 0.00 0.00 43 1008.1
20260505174654 46 119 1.0 11.0 0.00 0.00 0.00 45 1008.2
20260505174150 46 32 2.0 6.0 0.00 0.00 0.00 45 1008.2
20260505173647 46 261 2.0 9.0 0.00 0.00 0.00 44 1008.1
20260505173144 46 331 5.0 6.0 0.00 0.00 0.00 43 1008.4
20260505172641 47 145 2.0 6.0 0.00 0.00 0.00 43 1008.0
20260505172138 46 314 3.0 7.0 0.00 0.00 0.00 45 1008.1
20260505171637 46 43 3.0 5.0 0.00 0.00 0.00 45 1008.1
20260505171135 45 330 4.0 6.0 0.00 0.00 0.00 47 1008.1
20260505170632 46 241 4.0 8.0 0.00 0.00 0.00 45 1008.3
20260505170128 49 148 3.0 5.0 0.00 0.00 0.00 43 1008.3
20260505165624 47 305 4.0 6.0 0.00 0.00 0.00 45 1008.3
20260505165120 46 352 6.0 7.0 0.00 0.00 0.00 45 1008.2
20260505164615 46 189 3.0 6.0 0.00 0.00 0.00 47 1008.3
20260505164113 47 254 3.0 6.0 0.00 0.00 0.00 45 1008.1
20260505163612 48 231 5.0 7.0 0.00 0.00 0.00 43 1008.0
20260505163109 47 219 3.0 8.0 0.00 0.00 0.00 46 1008.2
20260505162606 44 178 2.0 3.0 0.00 0.00 0.00 49 1008.1
20260505162104 46 55 2.0 5.0 0.00 0.00 0.00 47 1008.2
20260505161601 47 147 1.0 5.0 0.00 0.00 0.00 46 1008.4
20260505161058 46 46 2.0 10.0 0.00 0.00 0.00 46 1008.2
20260505160555 43 119 1.0 5.0 0.00 0.00 0.00 50 1008.3
20260505153032 45 227 2.0 3.0 0.00 0.00 0.00 48 1007.9
20260505152529 44 176 4.0 6.0 0.00 0.00 0.00 50 1008.0
20260505152025 44 122 1.0 5.0 0.00 0.00 0.00 50 1007.9
20260505151520 43 125 1.0 5.0 0.00 0.00 0.00 51 1008.0
20260505151018 44 92 1.0 3.0 0.00 0.00 0.00 49 1007.8
20260505150514 44 99 2.0 6.0 0.00 0.00 0.00 50 1007.8
20260505140439 43 84 2.0 3.0 0.00 0.00 0.00 50 1007.5
20260505124852 38 323 3.0 8.0 0.00 0.00 0.00 58 1006.7
20260505124349 38 326 2.0 3.0 0.00 0.00 0.00 60 1006.5
20260505123845 37 88 2.0 3.0 0.00 0.00 0.00 62 1006.6
20260505123342 37 127 0.0 2.0 0.00 0.00 0.00 61 1006.6
20260505122838 37 26 2.0 3.0 0.00 0.00 0.00 63 1006.3
20260505122336 36 138 1.0 3.0 0.00 0.00 0.00 63 1006.3
20260505121832 36 28 2.0 3.0 0.00 0.00 0.00 65 1006.5
20260505121329 36 86 3.0 5.0 0.00 0.00 0.00 64 1006.4
20260505120825 36 89 1.0 5.0 0.00 0.00 0.00 66 1006.1
20260505120321 35 16 3.0 6.0 0.00 0.00 0.00 65 1006.1
20260505115820 35 101 1.0 3.0 0.00 0.00 0.00 67 1006.4
20260505115317 35 93 1.0 5.0 0.00 0.00 0.00 67 1006.2
20260505114815 35 94 0.0 2.0 0.00 0.00 0.00 68 1006.1
20260505114311 34 137 0.0 1.0 0.00 0.00 0.00 71 1006.0
20260505113808 34 43 2.0 3.0 0.00 0.00 0.00 71 1006.2
20260505113304 34 142 0.0 2.0 0.00 0.00 0.00 73 1006.1
20260505112800 34 128 0.0 2.0 0.00 0.00 0.00 73 1005.8
20260505112258 34 130 0.0 1.0 0.00 0.00 0.00 73 1005.9
20260505111758 34 118 0.0 3.0 0.00 0.00 0.00 72 1006.0
20260505111254 34 75 0.0 0.0 0.00 0.00 0.00 73 1005.6
20260505110750 34 143 2.0 2.0 0.00 0.00 0.00 74 1005.5
20260505110248 34 89 1.0 5.0 0.00 0.00 0.00 73 1005.6
20260505101722 35 134 1.0 1.0 0.00 0.00 0.00 70 1005.2
20260505101218 35 52 0.0 1.0 0.00 0.00 0.00 70 1005.1
20260505100715 36 183 2.0 3.0 0.00 0.00 0.00 70 1005.1
20260505100211 36 52 2.0 6.0 0.00 0.00 0.00 71 1005.3
20260505095707 36 306 3.0 3.0 0.00 0.00 0.00 71 1005.3
20260505095205 36 179 2.0 5.0 0.00 0.00 0.00 71 1005.3
20260505094700 36 156 2.0 5.0 0.00 0.00 0.00 72 1005.4
20260505094157 36 125 1.0 1.0 0.00 0.00 0.00 72 1005.2
20260505093653 36 149 0.0 5.0 0.00 0.00 0.00 72 1005.3
20260505093151 36 108 0.0 2.0 0.00 0.00 0.00 73 1005.2
20260505092647 36 146 1.0 3.0 0.00 0.00 0.00 73 1005.1
20260505092146 37 350 3.0 3.0 0.00 0.00 0.00 71 1005.1
20260505091643 37 143 1.0 3.0 0.00 0.00 0.00 72 1005.0
20260505091141 37 214 2.0 3.0 0.00 0.00 0.00 73 1005.0
20260505090638 37 32 2.0 5.0 0.00 0.00 0.00 72 1004.7
20260505090137 37 140 1.0 3.0 0.00 0.00 0.00 72 1004.6
20260505085633 37 68 1.0 2.0 0.00 0.00 0.00 72 1004.6
20260505085132 37 119 1.0 3.0 0.00 0.00 0.00 71 1004.4
20260505084629 37 77 1.0 2.0 0.00 0.00 0.00 71 1004.3
20260505084128 37 2 3.0 3.0 0.00 0.00 0.00 72 1004.4
20260505083625 37 165 1.0 3.0 0.00 0.00 0.00 71 1004.2
20260505083121 37 163 0.0 3.0 0.00 0.00 0.00 71 1004.1
20260505082617 38 162 0.0 3.0 0.00 0.00 0.00 71 1004.1
20260505082114 38 101 1.0 2.0 0.00 0.00 0.00 72 1004.1
20260505081610 38 107 0.0 2.0 0.00 0.00 0.00 71 1004.1
20260505081108 38 143 1.0 2.0 0.00 0.00 0.00 71 1004.0
20260505080604 38 177 2.0 3.0 0.00 0.00 0.00 70 1004.1
20260505080101 38 133 1.0 3.0 0.00 0.00 0.00 71 1004.2
20260505075556 38 137 1.0 3.0 0.00 0.00 0.00 71 1004.0
20260505075053 38 89 1.0 3.0 0.00 0.00 0.00 71 1004.0
20260505074550 38 97 1.0 2.0 0.00 0.00 0.00 70 1003.8
20260505074047 38 93 1.0 5.0 0.00 0.00 0.00 70 1004.0
20260505073544 38 105 0.0 2.0 0.00 0.00 0.00 70 1003.9
20260505073044 38 110 1.0 2.0 0.00 0.00 0.00 70 1004.0
20260505072538 38 116 0.0 0.0 0.00 0.00 0.00 70 1004.1
20260505072035 39 278 2.0 3.0 0.00 0.00 0.00 69 1004.0
20260505071530 39 127 0.0 1.0 0.00 0.00 0.00 69 1003.9
20260505071029 39 143 1.0 2.0 0.00 0.00 0.00 68 1003.9
20260505070526 39 115 0.0 1.0 0.00 0.00 0.00 68 1004.2
20260505070022 39 149 1.0 2.0 0.00 0.00 0.00 67 1003.9
20260505065518 39 130 0.0 3.0 0.00 0.00 0.00 66 1003.8
20260505065014 39 287 1.0 2.0 0.00 0.00 0.00 65 1003.8
20260505064511 40 87 1.0 5.0 0.00 0.00 0.00 64 1003.7
20260505064010 39 121 0.0 3.0 0.00 0.00 0.00 64 1003.8
20260505063507 39 144 1.0 5.0 0.00 0.00 0.00 65 1003.8
20260505063002 39 132 0.0 2.0 0.00 0.00 0.00 65 1003.6
20260505062459 39 54 2.0 3.0 0.00 0.00 0.00 65 1003.7
20260505061956 39 152 0.0 3.0 0.00 0.00 0.00 65 1003.6
20260505061454 39 124 1.0 2.0 0.00 0.00 0.00 66 1003.5
20260505060951 39 138 0.0 1.0 0.00 0.00 0.00 65 1003.9
20260505060449 39 122 1.0 1.0 0.00 0.00 0.00 65 1003.5
20260505055945 39 137 0.0 1.0 0.00 0.00 0.00 65 1003.6
20260505055441 39 126 0.0 1.0 0.00 0.00 0.00 66 1003.5
20260505054938 39 123 0.0 1.0 0.00 0.00 0.00 66 1003.5
20260505054435 40 138 0.0 2.0 0.00 0.00 0.00 65 1003.5
20260505053933 40 127 1.0 1.0 0.00 0.00 0.00 65 1003.5
20260505053430 40 136 0.0 0.0 0.00 0.00 0.00 64 1003.4
20260505052927 40 149 1.0 2.0 0.00 0.00 0.00 63 1003.4
20260505052424 40 127 1.0 1.0 0.00 0.00 0.00 63 1003.3
20260505051921 40 154 1.0 2.0 0.00 0.00 0.00 63 1003.5
20260505051418 41 138 0.0 1.0 0.00 0.00 0.00 62 1003.2
20260505050916 41 138 1.0 1.0 0.00 0.00 0.00 62 1003.4
20260505050414 41 124 0.0 0.0 0.00 0.00 0.00 61 1003.4
20260505041341 42 128 0.0 2.0 0.00 0.00 0.00 59 1003.1
20260505040839 42 117 1.0 1.0 0.00 0.00 0.00 58 1002.9
20260505040336 42 125 0.0 3.0 0.00 0.00 0.00 59 1003.2
20260505035833 42 94 0.0 2.0 0.00 0.00 0.00 58 1003.3
20260505035328 42 171 1.0 2.0 0.00 0.00 0.00 58 1003.0
20260505034826 42 125 0.0 1.0 0.00 0.00 0.00 58 1003.1
20260505034322 42 128 0.0 0.0 0.00 0.00 0.00 58 1003.1
20260505033820 42 156 1.0 2.0 0.00 0.00 0.00 56 1003.1
20260505033316 43 133 0.0 1.0 0.00 0.00 0.00 56 1003.1
20260505032815 43 122 0.0 3.0 0.00 0.00 0.00 55 1003.2
20260505032311 43 140 2.0 2.0 0.00 0.00 0.00 55 1003.0
20260505031808 44 155 2.0 2.0 0.00 0.00 0.00 54 1003.2
20260505031304 44 132 1.0 3.0 0.00 0.00 0.00 54 1003.3
20260505030802 43 126 1.0 1.0 0.00 0.00 0.00 54 1003.1
20260505030258 43 146 0.0 1.0 0.00 0.00 0.00 54 1003.0
20260505025753 43 160 1.0 1.0 0.00 0.00 0.00 55 1003.0
20260505025251 43 132 0.0 0.0 0.00 0.00 0.00 55 1003.1
20260505024749 43 132 0.0 2.0 0.00 0.00 0.00 54 1003.0
20260505024246 44 148 0.0 0.0 0.00 0.00 0.00 54 1003.0
20260505023744 44 149 0.0 1.0 0.00 0.00 0.00 54 1002.9
20260505023241 44 141 0.0 1.0 0.00 0.00 0.00 53 1002.8
20260505022738 44 171 1.0 1.0 0.00 0.00 0.00 53 1002.8
20260505022235 44 147 0.0 1.0 0.00 0.00 0.00 53 1002.7
20260505021731 45 136 0.0 0.0 0.00 0.00 0.00 52 1002.6
20260505021229 45 136 0.0 1.0 0.00 0.00 0.00 52 1002.7
20260505020724 45 136 1.0 1.0 0.00 0.00 0.00 51 1002.6
20260505020219 45 122 1.0 1.0 0.00 0.00 0.00 51 1002.5
20260505015717 46 132 0.0 2.0 0.00 0.00 0.00 50 1002.3
20260505015214 46 328 2.0 3.0 0.00 0.00 0.00 50 1002.3
20260505014711 46 126 0.0 1.0 0.00 0.00 0.00 50 1002.2
20260505014209 46 152 0.0 1.0 0.00 0.00 0.00 49 1002.0
20260505013705 46 211 1.0 2.0 0.00 0.00 0.00 49 1002.2
20260505013202 46 106 0.0 3.0 0.00 0.00 0.00 49 1002.1
20260505012700 46 29 2.0 5.0 0.00 0.00 0.00 47 1002.1
20260505012157 47 206 2.0 3.0 0.00 0.00 0.00 48 1002.1
20260505011653 47 333 4.0 6.0 0.00 0.00 0.00 46 1001.9
20260505011150 48 131 1.0 6.0 0.00 0.00 0.00 46 1002.1
20260505010645 48 194 3.0 5.0 0.00 0.00 0.00 48 1001.8
20260505010143 48 108 1.0 3.0 0.00 0.00 0.00 48 1001.9
20260505005638 48 103 4.0 6.0 0.00 0.00 0.00 47 1001.6
20260505005136 48 117 0.0 3.0 0.00 0.00 0.00 46 1001.9
20260505004633 48 332 5.0 8.0 0.00 0.00 0.00 46 1001.7
20260505004129 49 342 3.0 5.0 0.00 0.00 0.00 46 1001.9
20260505003626 49 134 3.0 6.0 0.00 0.00 0.00 48 1001.6
20260505003124 49 114 1.0 9.0 0.00 0.00 0.00 47 1001.5
20260505002620 49 130 2.0 3.0 0.00 0.00 0.00 47 1001.5
20260505002118 50 20 6.0 8.0 0.00 0.00 0.00 45 1001.2
20260505001615 50 58 3.0 6.0 0.00 0.00 0.00 45 1001.3
20260505001113 50 178 3.0 6.0 0.00 0.00 0.00 45 1000.9
20260505000609 50 46 3.0 6.0 0.00 0.00 0.00 45 1000.9
20260505000108 50 62 1.0 7.0 0.00 0.00 0.00 44 1000.8
20260504235604 50 343 2.0 6.0 0.00 0.00 0.00 42 1000.8
20260504235100 50 358 6.0 8.0 0.00 0.00 0.00 42 1000.7
20260504234557 51 225 4.0 7.0 0.00 0.00 0.00 42 1000.6
20260504234054 52 182 1.0 5.0 0.00 0.00 0.00 41 1000.8
20260504233549 51 134 3.0 8.0 0.00 0.00 0.00 40 1000.3
20260504233047 52 93 2.0 7.0 0.00 0.00 0.00 40 1000.4
20260504232544 53 26 3.0 5.0 0.00 0.00 0.00 40 1000.5
20260504232041 52 41 2.0 8.0 0.00 0.00 0.00 39 1000.4
20260504231538 52 62 3.0 5.0 0.00 0.00 0.00 39 1000.4
20260504231034 52 230 3.0 10.0 0.00 0.00 0.00 40 1000.2
20260504230530 53 43 2.0 3.0 0.00 0.00 0.00 40 1000.2
20260504230029 54 25 4.0 7.0 0.00 0.00 0.00 39 1000.1
20260504225526 54 62 2.0 10.0 0.00 0.00 0.00 39 1000.2
20260504225023 57 91 4.0 13.0 0.00 0.00 0.00 38 1000.1
20260504224520 55 89 3.0 5.0 0.00 0.00 0.00 38 999.9
20260504224017 55 298 7.0 11.0 0.00 0.00 0.00 38 999.8
20260504223513 54 171 4.0 7.0 0.00 0.00 0.00 38 999.5
20260504223009 53 29 4.0 9.0 0.00 0.00 0.00 40 999.6
20260504222506 55 278 6.0 9.0 0.00 0.00 0.00 38 999.6
20260504222004 56 304 4.0 8.0 0.00 0.00 0.00 39 999.6
20260504221501 55 70 3.0 13.0 0.00 0.00 0.00 40 999.6
20260504220958 55 62 2.0 8.0 0.00 0.00 0.00 40 999.4
20260504220454 54 297 4.0 11.0 0.00 0.00 0.00 41 999.3
20260504215951 54 270 2.0 6.0 0.00 0.00 0.00 41 999.3
20260504215448 54 114 3.0 9.0 0.00 0.00 0.00 41 999.0
20260504214944 55 87 3.0 5.0 0.00 0.00 0.00 41 999.1
20260504214441 55 202 4.0 7.0 0.00 0.00 0.00 39 999.0
20260504213937 56 16 4.0 7.0 0.00 0.00 0.00 39 998.8
20260504213433 57 86 3.0 7.0 0.00 0.00 0.00 38 998.9
20260504212931 57 1 6.0 8.0 0.00 0.00 0.00 38 999.1
20260504212427 57 149 1.0 10.0 0.00 0.00 0.00 40 998.7
20260504211925 55 172 5.0 8.0 0.00 0.00 0.00 39 998.7
20260504211421 55 101 2.0 11.0 0.00 0.00 0.00 40 999.0
20260504210918 57 226 3.0 8.0 0.00 0.00 0.00 39 998.7
20260504210415 56 341 2.0 8.0 0.00 0.00 0.00 41 998.6
20260504205912 56 266 4.0 7.0 0.00 0.00 0.00 40 998.6
20260504205410 58 87 3.0 7.0 0.00 0.00 0.00 38 998.5
20260504204908 57 112 1.0 13.0 0.00 0.00 0.00 39 998.5